Location: Tamazert
(32.6352°N, 5.2072°W)
Time: 03:49:08
(UTC+00:00)

Vanguard 2 Rocket - Pass Details

Date: 08 October 2022
Orbit: 555 x 3321 km, 32.9° (Epoch: 04 December)

Event Time Altitude Azimuth Distance (km) Brightness Sun altitude
Rises 03:39:15 0° 283° (WNW) 4,958 - -34.2°
Reaches altitude 10° 03:43:39 10° 274° (W) 3,466 - -33.4°
Maximum altitude 03:50:18 28° 219° (SW) 1,730 - -32.0°
Drops below altitude 10° 03:54:46 10° 160° (SSE) 2,262 - -31.1°
Exits shadow 03:55:07 - 157° (SSE) 2,363 9.1 -31.0°
Sets 03:57:02 0° 147° (SSE) 2,990 9.8 -30.6°
